User: anonymous   Login
Location: Unspecified
(0.0000°N, 0.0000°E)
Time: 04:05:55
(UTC+00:00)
Language:

NOAA 17 - Orbit

View from above orbital plane
View from above orbital plane
View from above satellite
View from above satellite

Ground track
Ground track

The orbit data is extracted from the following two-line orbital elements,

1 27453U 02032A   14352.53720781  .00000178  00000-0  93995-4 0  8495
2 27453 098.3252 342.6433 0011417 359.0796 001.0361 14.24832661648938
Epoch (UTC): 18 December 2014 12:53:34
Eccentricity: 0.0011417
inclination: 98.3252°
perigee height: 801 km
apogee height: 817 km
right ascension of ascending node: 342.6433°
argument of perigee: 359.0796°
revolutions per day: 14.24832661
mean anomaly at epoch: 1.0361°
orbit number at epoch: 64893

The dashed part of the orbit path shows where the satellite is in the earth's shadow,  

DLR